AURA

Last updated on Fri Jun 19 2026 17:09:17 GMT+0000 (Coordinated Universal Time)

1 28376U 04026A 26170.24565566 .00000616 00000+0 13447-3 0 9997 2 28376 98.3417 126.7160 0001188 76.5236 283.6097 14.61331831166515
UTC large
Height (km)
Speed (km/s)
/
Latitude / Longitude
Inclination (degrees)
Orbital Period (minutes)
Azimuth
Elevation
Range (km)
Doppler Factor

Next 0 passes for location: London (51.5072 / 0.1276)

Sorry there are no passes over London.
AURA